Zurück zum Katalog

STARLINK-35119

AktivKommunikationVLEO
NORAD 65508·PAYLOAD·🇺🇸 United States

Gestartet Sep 5, 2025 von Cape Canaveral Space Force Station

Loading…

Nächste Überflüge (nächste 24 Stunden)

TLE

AktuellSource: CelesTrak SupGP

Epoche: Sep 14, 2026, 22:58 UTC

1 65508C 25198S   26257.95743056 -.00108130  00000+0 -31961-2 0  2573
2 65508  53.1567 107.9483 0001291  84.9796 256.8376 15.34429999    14

Verfolge STARLINK-35119 in Echtzeit mit AllMySat

Download on the App Store